Biloxi, MS

5:38 PM CDT on April 23, 2017 (GMT -0500)
Keesler Air Force Base

Weather History for KBIX - May, 2013

Change the Weather History Date:

Wednesday, May 1, 2013

  Actual Average Record
Temperature  
Mean Temperature 70 °F -  
Max Temperature 78 °F 79 °F 88 °F (1955)
Min Temperature 63 °F 64 °F 52 °F (1969)
Cooling Degree Days 6    
Growing Degree Days 20 (Base 50)    
Moisture  
Dew Point 67 °F    
Average Humidity 91    
Maximum Humidity 100    
Minimum Humidity 74    
Precipitation  
Precipitation 3.84 in - - ()
Sea Level Pressure  
Sea Level Pressure 29.88 in    
Wind  
Wind Speed 10 mph (East)    
Max Wind Speed 22 mph    
Max Gust Speed 33 mph    
Visibility 7 miles    
Events Fog , Rain , Thunderstorm    
Averages and records for this station are not official NWS values.
T = Trace of Precipitation, MM = Missing Value Source: NWS Daily Summary

Daily Weather History Graph

Daily Weather History Graph

Search for Another Location

Airport or City:

Trip Planner

Search our weather history database for the weather conditions in past years. The results will help you decide how hot, cold, wet, or windy it might be!

Date:

Astronomy

May. 01, 2013 Rise Set
Actual Time 6:11 AM CDT 7:33 PM CDT
Civil Twilight 5:46 AM CDT 7:59 PM CDT
Nautical Twilight 5:16 AM CDT 8:29 PM CDT
Astronomical Twilight 4:44 AM CDT 9:01 PM CDT
Moon 12:42 AM CDT (5/1) 11:50 AM CDT (5/1)
Length of Visible Light 14h 12m
Length of Day
13h 21m
Waning Gibbous, 59% of the Moon is Illuminated
May 1
Waning Gibbous
May 2
Last Quarter
May 9
New
May 17
First Quarter
May 24
Full

Hourly Weather History & Observations

Time (CDT) Temp. Dew Point Humidity Pressure Visibility Wind Dir Wind Speed Gust Speed Precip Events Conditions
12:58 AM 69.1 °F 67.6 °F 95% 29.90 in 10.0 mi ENE 5.8 mph - N/A   Overcast
1:03 AM 69.8 °F 68.0 °F 94% 29.90 in 10.0 mi ENE 5.8 mph - N/A   Overcast
1:08 AM 69.8 °F 68.0 °F 94% 29.90 in 10.0 mi ENE 4.6 mph - N/A   Overcast
1:13 AM 69.8 °F 68.0 °F 94% 29.89 in 10.0 mi ENE 5.8 mph - N/A   Mostly Cloudy
1:58 AM 69.1 °F 68.0 °F 96% 29.86 in 10.0 mi East 3.5 mph - N/A   Overcast
2:58 AM 69.3 °F 68.2 °F 96% 29.84 in 10.0 mi ENE 6.9 mph - N/A   Overcast
3:58 AM 69.1 °F 67.8 °F 96% 29.86 in 10.0 mi ENE 4.6 mph - N/A   Overcast
4:58 AM 68.7 °F 67.6 °F 96% 29.87 in 10.0 mi NE 4.6 mph - N/A   Mostly Cloudy
5:58 AM 69.1 °F 67.6 °F 95% 29.88 in 10.0 mi ENE 5.8 mph - N/A   Overcast
6:58 AM 68.9 °F 67.5 °F 95% 29.90 in 10.0 mi ENE 5.8 mph - N/A   Scattered Clouds
7:58 AM 71.4 °F 69.1 °F 92% 29.91 in 10.0 mi East 5.8 mph - N/A   Scattered Clouds
8:18 AM 71.6 °F 68.0 °F 88% 29.91 in 10.0 mi East 8.1 mph - N/A   Mostly Cloudy
8:23 AM 71.6 °F 68.0 °F 88% 29.91 in 10.0 mi East 6.9 mph - N/A   Mostly Cloudy
8:28 AM 71.6 °F 68.0 °F 88% 29.92 in 10.0 mi ESE 8.1 mph - N/A   Overcast
8:33 AM 71.6 °F 69.8 °F 94% 29.92 in 10.0 mi ESE 15.0 mph - N/A   Overcast
8:58 AM 73.2 °F 68.7 °F 86% 29.93 in 10.0 mi ESE 15.0 mph 23.0 mph N/A   Overcast
9:58 AM 75.2 °F 68.0 °F 78% 29.93 in 10.0 mi ESE 15.0 mph 24.2 mph N/A   Overcast
10:58 AM 76.5 °F 69.4 °F 79% 29.93 in 10.0 mi SE 16.1 mph 24.2 mph 0.01 in   Overcast
11:03 AM 77.0 °F 69.8 °F 78% 29.92 in 10.0 mi SE 19.6 mph 24.2 mph N/A   Overcast
11:38 AM 78.8 °F 69.8 °F 74% 29.90 in 10.0 mi SE 19.6 mph 25.3 mph N/A   Mostly Cloudy
11:58 AM 78.1 °F 70.2 °F 77% 29.90 in 10.0 mi SE 19.6 mph 26.5 mph N/A   Mostly Cloudy
12:23 PM 77.0 °F 69.8 °F 78% 29.89 in 10.0 mi SE 19.6 mph 27.6 mph N/A   Scattered Clouds
12:33 PM 77.0 °F 69.8 °F 78% 29.88 in 10.0 mi SE 18.4 mph 25.3 mph N/A   Mostly Cloudy
12:38 PM 78.8 °F 69.8 °F 74% 29.88 in 10.0 mi SE 18.4 mph 25.3 mph N/A   Mostly Cloudy
12:43 PM 78.8 °F 69.8 °F 74% 29.88 in 10.0 mi SE 19.6 mph 27.6 mph N/A   Mostly Cloudy
12:48 PM 77.0 °F 69.8 °F 78% 29.88 in 10.0 mi SE 17.3 mph 27.6 mph N/A   Mostly Cloudy
12:58 PM 77.0 °F 70.2 °F 79% 29.89 in 10.0 mi ESE 15.0 mph 25.3 mph N/A   Overcast
1:26 PM 77.0 °F 69.8 °F 78% 29.87 in 10.0 mi ESE 18.4 mph 27.6 mph N/A Rain Light Rain
1:31 PM 75.2 °F 71.6 °F 89% 29.86 in 10.0 mi ESE 20.7 mph 25.3 mph N/A Rain Rain
1:36 PM 75.2 °F 71.6 °F 89% 29.86 in 10.0 mi ESE 16.1 mph 25.3 mph N/A Rain , Thunderstorm Light Rain
1:38 PM 75.2 °F 71.6 °F 89% 29.86 in 10.0 mi ESE 16.1 mph 25.3 mph N/A Rain , Thunderstorm Light Thunderstorms and Rain
1:40 PM 75.2 °F 71.6 °F 89% 29.87 in 10.0 mi SE 15.0 mph 25.3 mph N/A Thunderstorm Thunderstorm
1:53 PM 73.4 °F 71.6 °F 94% 29.85 in 10.0 mi SE 19.6 mph 26.5 mph N/A Thunderstorm Mostly Cloudy
1:58 PM 73.9 °F 70.9 °F 90% 29.86 in 10.0 mi SE 21.9 mph 28.8 mph 0.03 in Thunderstorm Overcast
2:08 PM 73.4 °F 71.6 °F 94% 29.86 in 9.0 mi SE 18.4 mph 33.4 mph N/A Thunderstorm Overcast
2:31 PM 73.4 °F 69.8 °F 88% 29.86 in 10.0 mi SE 18.4 mph 23.0 mph N/A Thunderstorm Thunderstorm
2:40 PM 73.4 °F 69.8 °F 88% 29.86 in 10.0 mi ESE 17.3 mph 25.3 mph N/A Rain , Thunderstorm Light Thunderstorms and Rain
2:58 PM 73.0 °F 70.3 °F 91% 29.87 in 3.0 mi SE 15.0 mph 21.9 mph 0.03 in Rain , Thunderstorm Light Thunderstorms and Rain
3:03 PM 73.4 °F 69.8 °F 88% 29.86 in 4.0 mi SE 15.0 mph 21.9 mph N/A Rain , Thunderstorm Light Thunderstorms and Rain
3:06 PM 73.4 °F 69.8 °F 88% 29.86 in 4.0 mi SE 16.1 mph - N/A Rain Light Rain
3:21 PM 73.4 °F 69.8 °F 88% 29.85 in 5.0 mi SE 18.4 mph 25.3 mph N/A Rain , Thunderstorm Light Rain
3:26 PM 73.4 °F 69.8 °F 88% 29.85 in 6.0 mi SSE 16.1 mph 25.3 mph N/A Rain , Thunderstorm Light Rain
3:31 PM 73.4 °F 69.8 °F 88% 29.85 in 6.0 mi SE 16.1 mph 23.0 mph N/A Rain , Thunderstorm Light Rain
3:33 PM 73.4 °F 69.8 °F 88% 29.85 in 5.0 mi SE 16.1 mph 23.0 mph N/A Rain , Thunderstorm Light Thunderstorms and Rain
3:53 PM 71.6 °F 68.0 °F 88% 29.84 in 6.0 mi SE 8.1 mph - N/A Rain , Thunderstorm Light Thunderstorms and Rain
3:58 PM 71.2 °F 67.8 °F 89% 29.85 in 7.0 mi SE 12.7 mph 18.4 mph 0.17 in Rain , Thunderstorm Light Thunderstorms and Rain
4:09 PM 73.4 °F 69.8 °F 88% 29.84 in 10.0 mi SSE 16.1 mph 23.0 mph N/A Thunderstorm Thunderstorm
4:15 PM 73.4 °F 69.8 °F 88% 29.84 in 10.0 mi SE 18.4 mph 24.2 mph N/A Thunderstorm Overcast
4:25 PM 73.4 °F 71.6 °F 94% 29.85 in 10.0 mi SE 15.0 mph - N/A Rain , Thunderstorm Light Thunderstorms and Rain
4:55 PM 68.0 °F 66.2 °F 94% 29.85 in 2.5 mi West 8.1 mph - N/A Rain , Thunderstorm Thunderstorms and Rain
4:58 PM 68.0 °F 66.2 °F 94% 29.87 in 2.0 mi Variable 4.6 mph - 0.13 in Rain , Thunderstorm Thunderstorms and Rain
5:08 PM 68.0 °F 64.4 °F 88% 29.84 in 2.5 mi Variable 4.6 mph - N/A Rain , Thunderstorm Thunderstorms and Rain
5:13 PM 68.0 °F 64.4 °F 88% 29.87 in 3.0 mi Calm Calm - N/A Rain , Thunderstorm Thunderstorms and Rain
5:18 PM 68.0 °F 64.4 °F 88% 29.87 in 0.5 mi Variable 5.8 mph - N/A Fog , Rain , Thunderstorm Heavy Thunderstorms and Rain
5:23 PM 66.2 °F 64.4 °F 94% 29.86 in 0.2 mi North 9.2 mph - N/A Fog , Rain , Thunderstorm Heavy Thunderstorms and Rain
5:28 PM 66.2 °F 64.4 °F 94% 29.89 in 0.5 mi Variable 4.6 mph - N/A Fog , Rain , Thunderstorm Heavy Thunderstorms and Rain
5:38 PM 66.2 °F 64.4 °F 94% 29.85 in 0.2 mi North 18.4 mph 25.3 mph N/A Fog , Rain , Thunderstorm Heavy Thunderstorms and Rain
5:43 PM 66.2 °F 64.4 °F 94% 29.86 in 0.2 mi NNW 19.6 mph 28.8 mph N/A Fog , Rain , Thunderstorm Heavy Thunderstorms and Rain
5:44 PM 66.2 °F 64.4 °F 94% 29.85 in 0.5 mi NNW 20.7 mph 29.9 mph N/A Fog , Rain , Thunderstorm Heavy Thunderstorms and Rain
5:49 PM 66.2 °F 64.4 °F 94% 29.87 in 0.2 mi WNW 8.1 mph 29.9 mph N/A Fog , Rain , Thunderstorm Heavy Thunderstorms and Rain
5:54 PM 66.2 °F 64.4 °F 94% 29.89 in 0.2 mi NNW 9.2 mph 27.6 mph N/A Fog , Rain , Thunderstorm Heavy Thunderstorms and Rain
5:58 PM 66.4 °F 64.9 °F 95% 29.89 in 0.2 mi North 18.4 mph 20.7 mph 1.84 in Fog , Rain , Thunderstorm Heavy Thunderstorms and Rain
6:03 PM 66.2 °F 64.4 °F 94% 29.86 in 0.2 mi North 15.0 mph 24.2 mph N/A Fog , Rain , Thunderstorm Heavy Thunderstorms and Rain
6:08 PM 66.2 °F 64.4 °F 94% 29.86 in 0.2 mi North 13.8 mph 24.2 mph N/A Fog , Rain , Thunderstorm Heavy Thunderstorms and Rain
6:13 PM 66.2 °F 64.4 °F 94% 29.86 in 1.0 mi North 10.4 mph - N/A Rain , Thunderstorm Heavy Thunderstorms and Rain
6:18 PM 66.2 °F 64.4 °F 94% 29.87 in 1.5 mi North 4.6 mph - N/A Rain , Thunderstorm Thunderstorms and Rain
6:23 PM 66.2 °F 64.4 °F 94% 29.88 in 1.8 mi North 9.2 mph - N/A Rain , Thunderstorm Thunderstorms and Rain
6:28 PM 66.2 °F 64.4 °F 94% 29.87 in 1.2 mi North 8.1 mph - N/A Rain , Thunderstorm Heavy Thunderstorms and Rain
6:33 PM 66.2 °F 64.4 °F 94% 29.87 in 1.8 mi North 8.1 mph - N/A Rain , Thunderstorm Thunderstorms and Rain
6:38 PM 66.2 °F 64.4 °F 94% 29.88 in 2.5 mi Variable 5.8 mph - N/A Rain , Thunderstorm Thunderstorms and Rain
6:48 PM 66.2 °F 64.4 °F 94% 29.89 in 1.5 mi NE 10.4 mph - N/A Rain , Thunderstorm Heavy Thunderstorms and Rain
6:53 PM 66.2 °F 64.4 °F 94% 29.88 in 1.0 mi NE 8.1 mph - N/A Rain , Thunderstorm Heavy Thunderstorms and Rain
6:58 PM 66.0 °F 64.6 °F 95% 29.89 in 1.2 mi NE 8.1 mph - 1.21 in Rain , Thunderstorm Thunderstorms and Rain
7:03 PM 66.2 °F 64.4 °F 94% 29.88 in 2.0 mi NE 8.1 mph - N/A Rain , Thunderstorm Heavy Thunderstorms and Rain
7:08 PM 66.2 °F 64.4 °F 94% 29.88 in 4.0 mi NE 8.1 mph - N/A Rain , Thunderstorm Thunderstorms and Rain
7:18 PM 66.2 °F 64.4 °F 94% 29.88 in 2.5 mi North 6.9 mph - N/A Rain , Thunderstorm Heavy Thunderstorms and Rain
7:23 PM 66.2 °F 64.4 °F 94% 29.88 in 1.8 mi North 9.2 mph - N/A Rain , Thunderstorm Thunderstorms and Rain
7:28 PM 66.2 °F 64.4 °F 94% 29.88 in 2.5 mi North 5.8 mph - N/A Rain , Thunderstorm Thunderstorms and Rain
7:33 PM 66.2 °F 64.4 °F 94% 29.89 in 5.0 mi North 5.8 mph - N/A Rain , Thunderstorm Thunderstorms and Rain
7:38 PM 66.2 °F 64.4 °F 94% 29.90 in 6.0 mi NE 5.8 mph - N/A Rain , Thunderstorm Light Thunderstorms and Rain
7:43 PM 66.2 °F 64.4 °F 94% 29.90 in 8.0 mi ENE 5.8 mph - N/A Rain , Thunderstorm Light Thunderstorms and Rain
7:58 PM 66.2 °F 64.4 °F 94% 29.91 in 6.0 mi East 6.9 mph - 0.22 in Rain , Thunderstorm Thunderstorms and Rain
8:03 PM 66.2 °F 64.4 °F 94% 29.91 in 7.0 mi ENE 10.4 mph - N/A Rain , Thunderstorm Thunderstorms and Rain
8:18 PM 66.2 °F 64.4 °F 94% 29.89 in 7.0 mi ENE 10.4 mph - N/A Rain , Thunderstorm Thunderstorms and Rain
8:23 PM 66.2 °F 64.4 °F 94% 29.89 in 8.0 mi ENE 10.4 mph - N/A Rain , Thunderstorm Thunderstorms and Rain
8:25 PM 66.2 °F 64.4 °F 94% 29.88 in 9.0 mi ENE 8.1 mph - N/A Rain , Thunderstorm Rain
8:29 PM 66.2 °F 64.4 °F 94% 29.89 in 9.0 mi East 8.1 mph - N/A Rain , Thunderstorm Light Thunderstorms and Rain
8:44 PM 66.2 °F 64.4 °F 94% 29.90 in 10.0 mi ENE 11.5 mph - N/A Rain , Thunderstorm Light Thunderstorms and Rain
8:51 PM 66.2 °F 64.4 °F 94% 29.89 in 10.0 mi East 13.8 mph - N/A Rain , Thunderstorm Light Rain
8:58 PM 65.7 °F 64.4 °F 96% 29.91 in 10.0 mi East 8.1 mph - 0.15 in Rain Light Rain
9:08 PM 66.2 °F 64.4 °F 94% 29.89 in 9.0 mi East 10.4 mph - N/A Rain , Thunderstorm Light Rain
9:13 PM 66.2 °F 64.4 °F 94% 29.89 in 10.0 mi East 10.4 mph - N/A Rain , Thunderstorm Light Rain
9:40 PM 64.4 °F 64.4 °F 100% 29.89 in 10.0 mi ESE 8.1 mph - N/A   Partly Cloudy
9:49 PM 64.4 °F 62.6 °F 94% 29.89 in 10.0 mi East 8.1 mph - N/A Thunderstorm Thunderstorm
9:58 PM 64.9 °F 63.5 °F 95% 29.90 in 10.0 mi East 9.2 mph - 0.05 in Thunderstorm Thunderstorm
10:03 PM 64.4 °F 62.6 °F 94% 29.89 in 10.0 mi East 10.4 mph - N/A Thunderstorm Thunderstorm
10:04 PM 64.4 °F 62.6 °F 94% 29.88 in 10.0 mi East 10.4 mph - N/A   Mostly Cloudy
10:54 PM 64.4 °F 62.6 °F 94% 29.89 in 10.0 mi East 8.1 mph - N/A Thunderstorm Scattered Clouds
10:58 PM 63.9 °F 62.4 °F 95% 29.90 in 10.0 mi ESE 6.9 mph - N/A Thunderstorm Scattered Clouds
11:58 PM 64.4 °F 64.4 °F 100% 29.89 in 10.0 mi East 6.9 mph - N/A   Mostly Cloudy